Tracking 25620 objects as of 19-May-2022
HD Live streaming from Space Station
objects crossing your sky now

COSMOS 2494 (SKRL 756)

Track COSMOS 2494 (SKRL 756) now!
10-day predictions
COSMOS 2494 (SKRL 756) is classified as:


NORAD ID: 39491
Int'l Code: 2013-078B
Perigee: 587.2 km
Apogee: 618.1 km
Inclination: 82.4 °
Period: 96.6 minutes
Semi major axis: 6973 km
RCS: Unknown
Launch date: December 28, 2013
Source: Commonwealth of Independent States (former USSR) (CIS)
Launch site: PLESETSK MISSILE AND SPACE COMPLEX (PKMTR)
aabbcc
Your satellite tracking list
Your tracking list is empty




NASA's NSSDC Master Catalog

Two Line Element Set (TLE):
1 39491U 13078B   22138.82609567  .00003217  00000-0  32341-3 0  9993
2 39491  82.4188 256.4162 0022161 168.0560 192.1189 14.90780300455842
Source of the keplerian elements: AFSPC